Year,Month,Day,Hour,Minute,Value (Times are PST for temperature in C)
2018,06,26,00,00,14.10
2018,06,26,00,01,14.10
2018,06,26,00,02,14.10
2018,06,26,00,03,14.10
2018,06,26,00,04,14.10
2018,06,26,00,05,14.10
2018,06,26,00,06,14.10
2018,06,26,00,07,14.10
2018,06,26,00,08,14.10
2018,06,26,00,09,14.10
2018,06,26,00,10,14.10
2018,06,26,00,11,14.10
2018,06,26,00,12,14.10
2018,06,26,00,13,14.10
2018,06,26,00,14,14.10
2018,06,26,00,15,14.20
2018,06,26,00,16,14.10
2018,06,26,00,17,14.10
2018,06,26,00,18,14.10
2018,06,26,00,19,14.10
2018,06,26,00,20,14.10
2018,06,26,00,21,14.10
2018,06,26,00,22,14.10
2018,06,26,00,23,14.10
2018,06,26,00,24,14.10
2018,06,26,00,25,14.10
2018,06,26,00,26,14.20
2018,06,26,00,27,14.10
2018,06,26,00,28,14.20
2018,06,26,00,29,14.10
2018,06,26,00,30,14.10
2018,06,26,00,31,14.10
2018,06,26,00,32,14.10
2018,06,26,00,33,14.10
2018,06,26,00,34,14.10
2018,06,26,00,35,14.10
2018,06,26,00,36,14.10
2018,06,26,00,37,14.10
2018,06,26,00,38,14.10
2018,06,26,00,39,14.10
2018,06,26,00,40,14.10
2018,06,26,00,41,14.10
2018,06,26,00,42,14.10
2018,06,26,00,43,14.10
2018,06,26,00,44,14.10
2018,06,26,00,45,14.10
2018,06,26,00,46,14.10
2018,06,26,00,47,14.10
2018,06,26,00,48,14.10
2018,06,26,00,49,14.10
2018,06,26,00,50,14.10
2018,06,26,00,51,14.10
2018,06,26,00,52,14.10
2018,06,26,00,53,14.10
2018,06,26,00,54,14.10
2018,06,26,00,55,14.10
2018,06,26,00,56,14.10
2018,06,26,00,57,14.10
2018,06,26,00,58,14.10
2018,06,26,00,59,14.10
2018,06,26,01,00,14.10
2018,06,26,01,01,14.10
2018,06,26,01,02,14.10
2018,06,26,01,03,14.10
2018,06,26,01,04,14.10
2018,06,26,01,05,14.10
2018,06,26,01,06,14.10
2018,06,26,01,07,14.10
2018,06,26,01,08,14.00
2018,06,26,01,09,14.00
2018,06,26,01,10,14.00
2018,06,26,01,11,14.00
2018,06,26,01,12,14.00
2018,06,26,01,13,13.90
2018,06,26,01,14,13.90
2018,06,26,01,15,13.90
2018,06,26,01,16,13.90
2018,06,26,01,17,13.90
2018,06,26,01,18,13.90
2018,06,26,01,19,13.90
2018,06,26,01,20,13.80
2018,06,26,01,21,13.80
2018,06,26,01,22,13.80
2018,06,26,01,23,13.80
2018,06,26,01,24,13.80
2018,06,26,01,25,13.80
2018,06,26,01,26,13.80
2018,06,26,01,27,13.80
2018,06,26,01,28,13.80
2018,06,26,01,29,13.80
2018,06,26,01,30,13.80
2018,06,26,01,31,13.80
2018,06,26,01,32,13.80
2018,06,26,01,33,13.80
2018,06,26,01,34,13.80
2018,06,26,01,35,13.80
2018,06,26,01,36,13.80
2018,06,26,01,37,13.80
2018,06,26,01,38,13.80
2018,06,26,01,39,13.80
2018,06,26,01,40,13.80
2018,06,26,01,41,13.80
2018,06,26,01,42,13.80
2018,06,26,01,43,13.80
2018,06,26,01,44,13.80
2018,06,26,01,45,13.80
2018,06,26,01,46,13.80
2018,06,26,01,47,13.80
2018,06,26,01,48,13.80
2018,06,26,01,49,13.80
2018,06,26,01,50,13.80
2018,06,26,01,51,13.80
2018,06,26,01,52,13.80
2018,06,26,01,53,13.80
2018,06,26,01,54,13.80
2018,06,26,01,55,13.80
2018,06,26,01,56,13.80
2018,06,26,01,57,13.80
2018,06,26,01,58,13.70
2018,06,26,01,59,13.70
2018,06,26,02,00,13.70
2018,06,26,02,01,13.70
2018,06,26,02,02,13.70
2018,06,26,02,03,13.70
2018,06,26,02,04,13.70
2018,06,26,02,05,13.70
2018,06,26,02,06,13.70
2018,06,26,02,07,13.70
2018,06,26,02,08,13.70
2018,06,26,02,09,13.70
2018,06,26,02,10,13.70
2018,06,26,02,11,13.70
2018,06,26,02,12,13.70
2018,06,26,02,13,13.70
2018,06,26,02,14,13.70
2018,06,26,02,15,13.70
2018,06,26,02,16,13.70
2018,06,26,02,17,13.70
2018,06,26,02,18,13.70
2018,06,26,02,19,13.70
2018,06,26,02,20,13.60
2018,06,26,02,21,13.70
2018,06,26,02,22,13.60
2018,06,26,02,23,13.60
2018,06,26,02,24,13.60
2018,06,26,02,25,13.60
2018,06,26,02,26,13.60
2018,06,26,02,27,13.50
2018,06,26,02,28,13.50
2018,06,26,02,29,13.50
2018,06,26,02,30,13.50
2018,06,26,02,31,13.50
2018,06,26,02,32,13.50
2018,06,26,02,33,13.50
2018,06,26,02,34,13.50
2018,06,26,02,35,13.40
2018,06,26,02,36,13.40
2018,06,26,02,37,13.40
2018,06,26,02,38,13.40
2018,06,26,02,39,13.40
2018,06,26,02,40,13.40
2018,06,26,02,41,13.40
2018,06,26,02,42,13.40
2018,06,26,02,43,13.40
2018,06,26,02,44,13.40
2018,06,26,02,45,13.40
2018,06,26,02,46,13.40
2018,06,26,02,47,13.40
2018,06,26,02,48,13.40
2018,06,26,02,49,13.40
2018,06,26,02,50,13.40
2018,06,26,02,51,13.30
2018,06,26,02,52,13.30
2018,06,26,02,53,13.30
2018,06,26,02,54,13.30
2018,06,26,02,55,13.30
2018,06,26,02,56,13.30
2018,06,26,02,57,13.30
2018,06,26,02,58,13.30
2018,06,26,02,59,13.30
2018,06,26,03,00,13.30
2018,06,26,03,01,13.30
2018,06,26,03,02,13.30
2018,06,26,03,03,13.30
2018,06,26,03,04,13.30
2018,06,26,03,05,13.30
2018,06,26,03,06,13.30
2018,06,26,03,07,13.30
2018,06,26,03,08,13.30
2018,06,26,03,09,13.20
2018,06,26,03,10,13.20
2018,06,26,03,11,13.20
2018,06,26,03,12,13.20
2018,06,26,03,13,13.20
2018,06,26,03,14,13.20
2018,06,26,03,15,13.20
2018,06,26,03,16,13.20
2018,06,26,03,17,13.20
2018,06,26,03,18,13.10
2018,06,26,03,19,13.10
2018,06,26,03,20,13.10
2018,06,26,03,21,13.10
2018,06,26,03,22,13.10
2018,06,26,03,23,13.10
2018,06,26,03,24,13.10
2018,06,26,03,25,13.10
2018,06,26,03,26,13.10
2018,06,26,03,27,13.10
2018,06,26,03,28,13.10
2018,06,26,03,29,13.10
2018,06,26,03,30,13.00
2018,06,26,03,31,13.00
2018,06,26,03,32,13.00
2018,06,26,03,33,13.00
2018,06,26,03,34,13.00
2018,06,26,03,35,13.00
2018,06,26,03,36,13.00
2018,06,26,03,37,13.00
2018,06,26,03,38,12.90
2018,06,26,03,39,12.90
2018,06,26,03,40,12.90
2018,06,26,03,41,12.90
2018,06,26,03,42,12.90
2018,06,26,03,43,12.80
2018,06,26,03,44,12.80
2018,06,26,03,45,12.80
2018,06,26,03,46,12.80
2018,06,26,03,47,12.90
2018,06,26,03,48,12.90
2018,06,26,03,49,12.80
2018,06,26,03,50,12.80
2018,06,26,03,51,12.80
2018,06,26,03,52,12.80
2018,06,26,03,53,12.80
2018,06,26,03,54,12.80
2018,06,26,03,55,12.70
2018,06,26,03,56,12.70
2018,06,26,03,57,12.70
2018,06,26,03,58,12.60
2018,06,26,03,59,12.60
2018,06,26,04,00,12.50
2018,06,26,04,01,12.50
2018,06,26,04,02,12.40
2018,06,26,04,03,12.40
2018,06,26,04,04,12.30
2018,06,26,04,05,12.30
2018,06,26,04,06,12.30
2018,06,26,04,07,12.30
2018,06,26,04,08,12.30
2018,06,26,04,09,12.30
2018,06,26,04,10,12.30
2018,06,26,04,11,12.20
2018,06,26,04,12,12.20
2018,06,26,04,13,12.20
2018,06,26,04,14,12.20
2018,06,26,04,15,12.10
2018,06,26,04,16,12.10
2018,06,26,04,17,12.10
2018,06,26,04,18,12.10
2018,06,26,04,19,12.00
2018,06,26,04,20,12.00
2018,06,26,04,21,12.00
2018,06,26,04,22,11.90
2018,06,26,04,23,11.90
2018,06,26,04,24,11.90
2018,06,26,04,25,11.80
2018,06,26,04,26,11.80
2018,06,26,04,27,11.80
2018,06,26,04,28,11.70
2018,06,26,04,29,11.70
2018,06,26,04,30,11.70
2018,06,26,04,31,11.70
2018,06,26,04,32,11.70
2018,06,26,04,33,11.70
2018,06,26,04,34,11.70
2018,06,26,04,35,11.70
2018,06,26,04,36,11.70
2018,06,26,04,37,11.70
2018,06,26,04,38,11.60
2018,06,26,04,39,11.60
2018,06,26,04,40,11.60
2018,06,26,04,41,11.60
2018,06,26,04,42,11.50
2018,06,26,04,43,11.50
2018,06,26,04,44,11.40
2018,06,26,04,45,11.40
2018,06,26,04,46,11.40
2018,06,26,04,47,11.30
2018,06,26,04,48,11.30
2018,06,26,04,49,11.30
2018,06,26,04,50,11.30
2018,06,26,04,51,11.30
2018,06,26,04,52,11.30
2018,06,26,04,53,11.30
2018,06,26,04,54,11.30
2018,06,26,04,55,11.30
2018,06,26,04,56,11.30
2018,06,26,04,57,11.30
2018,06,26,04,58,11.30
2018,06,26,04,59,11.30
2018,06,26,05,00,11.30
2018,06,26,05,01,11.30
2018,06,26,05,02,11.30
2018,06,26,05,03,11.30
2018,06,26,05,04,11.20
2018,06,26,05,05,11.10
2018,06,26,05,06,11.00
2018,06,26,05,07,11.00
2018,06,26,05,08,10.90
2018,06,26,05,09,10.90
2018,06,26,05,10,10.80
2018,06,26,05,11,10.80
2018,06,26,05,12,10.80
2018,06,26,05,13,10.80
2018,06,26,05,14,10.80
2018,06,26,05,15,10.80
2018,06,26,05,16,10.70
2018,06,26,05,17,10.70
2018,06,26,05,18,10.70
2018,06,26,05,19,10.60
2018,06,26,05,20,10.60
2018,06,26,05,21,10.60
2018,06,26,05,22,10.50
2018,06,26,05,23,10.50
2018,06,26,05,24,10.40
2018,06,26,05,25,10.40
2018,06,26,05,26,10.40
2018,06,26,05,27,10.40
2018,06,26,05,28,10.40
2018,06,26,05,29,10.40
2018,06,26,05,30,10.30
2018,06,26,05,31,10.30
2018,06,26,05,32,10.30
2018,06,26,05,33,10.30
2018,06,26,05,34,10.30
2018,06,26,05,35,10.30
2018,06,26,05,36,10.30
2018,06,26,05,37,10.30
2018,06,26,05,38,10.30
2018,06,26,05,39,10.30
2018,06,26,05,40,10.30
2018,06,26,05,41,10.30
2018,06,26,05,42,10.30
2018,06,26,05,43,10.30
2018,06,26,05,44,10.30
2018,06,26,05,45,10.30
2018,06,26,05,46,10.30
2018,06,26,05,47,10.30
2018,06,26,05,48,10.30
2018,06,26,05,49,10.40
2018,06,26,05,50,10.40
2018,06,26,05,51,10.40
2018,06,26,05,52,10.40
2018,06,26,05,53,10.40
2018,06,26,05,54,10.40
2018,06,26,05,55,10.40
2018,06,26,05,56,10.40
2018,06,26,05,57,10.40
2018,06,26,05,58,10.40
2018,06,26,05,59,10.40
2018,06,26,06,00,10.40
2018,06,26,06,01,10.50
2018,06,26,06,02,10.50
2018,06,26,06,03,10.50
2018,06,26,06,04,10.50
2018,06,26,06,05,10.50
2018,06,26,06,06,10.50
2018,06,26,06,07,10.50
2018,06,26,06,08,10.50
2018,06,26,06,09,10.50
2018,06,26,06,10,10.40
2018,06,26,06,11,10.40
2018,06,26,06,12,10.40
2018,06,26,06,13,10.50
2018,06,26,06,14,10.50
2018,06,26,06,15,10.50
2018,06,26,06,16,10.50
2018,06,26,06,17,10.50
2018,06,26,06,18,10.60
2018,06,26,06,19,10.60
2018,06,26,06,20,10.60
2018,06,26,06,21,10.60
2018,06,26,06,22,10.60
2018,06,26,06,23,10.60
2018,06,26,06,24,10.60
2018,06,26,06,25,10.60
2018,06,26,06,26,10.60
2018,06,26,06,27,10.60
2018,06,26,06,28,10.60
2018,06,26,06,29,10.70
2018,06,26,06,30,10.70
2018,06,26,06,31,10.70
2018,06,26,06,32,10.70
2018,06,26,06,33,10.70
2018,06,26,06,34,10.80
2018,06,26,06,35,10.80
2018,06,26,06,36,10.80
2018,06,26,06,37,10.80
2018,06,26,06,38,10.90
2018,06,26,06,39,11.00
2018,06,26,06,40,11.00
2018,06,26,06,41,11.10
2018,06,26,06,42,11.20
2018,06,26,06,43,11.30
2018,06,26,06,44,11.30
2018,06,26,06,45,11.40
2018,06,26,06,46,11.60
2018,06,26,06,47,11.60
2018,06,26,06,48,11.80
2018,06,26,06,49,11.80
2018,06,26,06,50,12.00
2018,06,26,06,51,12.10
2018,06,26,06,52,12.20
2018,06,26,06,53,12.30
2018,06,26,06,54,12.30
2018,06,26,06,55,12.40
2018,06,26,06,56,12.50
2018,06,26,06,57,12.50
2018,06,26,06,58,12.60
2018,06,26,06,59,12.60
2018,06,26,07,00,12.70
2018,06,26,07,01,12.70
2018,06,26,07,02,12.80
2018,06,26,07,03,12.90
2018,06,26,07,04,12.90
2018,06,26,07,05,13.00
2018,06,26,07,06,13.00
2018,06,26,07,07,13.10
2018,06,26,07,08,13.10
2018,06,26,07,09,13.10
2018,06,26,07,10,13.10
2018,06,26,07,11,13.10
2018,06,26,07,12,13.10
2018,06,26,07,13,13.20
2018,06,26,07,14,13.20
2018,06,26,07,15,13.30
2018,06,26,07,16,13.40
2018,06,26,07,17,13.50
2018,06,26,07,18,13.60
2018,06,26,07,19,13.60
2018,06,26,07,20,13.70
2018,06,26,07,21,13.70
2018,06,26,07,22,13.60
2018,06,26,07,23,13.60
2018,06,26,07,24,13.60
2018,06,26,07,25,13.70
2018,06,26,07,26,13.70
2018,06,26,07,27,13.70
2018,06,26,07,28,13.70
2018,06,26,07,29,13.60
2018,06,26,07,30,13.60
2018,06,26,07,31,13.50
2018,06,26,07,32,13.50
2018,06,26,07,33,13.50
2018,06,26,07,34,13.50
2018,06,26,07,35,13.50
2018,06,26,07,36,13.50
2018,06,26,07,37,13.50
2018,06,26,07,38,13.50
2018,06,26,07,39,13.50
2018,06,26,07,40,13.60
2018,06,26,07,41,13.60
2018,06,26,07,42,13.60
2018,06,26,07,43,13.60
2018,06,26,07,44,13.70
2018,06,26,07,45,13.70
2018,06,26,07,46,13.70
2018,06,26,07,47,13.70
2018,06,26,07,48,13.80
2018,06,26,07,49,13.80
2018,06,26,07,50,13.90
2018,06,26,07,51,13.90
2018,06,26,07,52,13.90
2018,06,26,07,53,13.90
2018,06,26,07,54,14.00
2018,06,26,07,55,14.00
2018,06,26,07,56,14.00
2018,06,26,07,57,14.00
2018,06,26,07,58,14.00
2018,06,26,07,59,14.00
2018,06,26,08,00,14.00
2018,06,26,08,01,14.00
2018,06,26,08,02,14.00
2018,06,26,08,03,14.10
2018,06,26,08,04,14.10
2018,06,26,08,05,14.10
2018,06,26,08,06,14.10
2018,06,26,08,07,14.20
2018,06,26,08,08,14.20
2018,06,26,08,09,14.20
2018,06,26,08,10,14.20
2018,06,26,08,11,14.30
2018,06,26,08,12,14.30
2018,06,26,08,13,14.30
2018,06,26,08,14,14.30
2018,06,26,08,15,14.30
2018,06,26,08,16,14.40
2018,06,26,08,17,14.40
2018,06,26,08,18,14.40
2018,06,26,08,19,14.50
2018,06,26,08,20,14.50
2018,06,26,08,21,14.60
2018,06,26,08,22,14.60
2018,06,26,08,23,14.70
2018,06,26,08,24,14.70
2018,06,26,08,25,14.80
2018,06,26,08,26,14.80
2018,06,26,08,27,14.80
2018,06,26,08,28,14.80
2018,06,26,08,29,14.90
2018,06,26,08,30,15.00
2018,06,26,08,31,15.00
2018,06,26,08,32,15.10
2018,06,26,08,33,15.10
2018,06,26,08,34,15.10
2018,06,26,08,35,15.10
2018,06,26,08,36,15.10
2018,06,26,08,37,15.10
2018,06,26,08,38,15.10
2018,06,26,08,39,15.20
2018,06,26,08,40,15.20
2018,06,26,08,41,15.20
2018,06,26,08,42,15.30
2018,06,26,08,43,15.30
2018,06,26,08,44,15.30
2018,06,26,08,45,15.30
2018,06,26,08,46,15.40
2018,06,26,08,47,15.40
2018,06,26,08,48,15.40
2018,06,26,08,49,15.40
2018,06,26,08,50,15.40
2018,06,26,08,51,15.40
2018,06,26,08,52,15.40
2018,06,26,08,53,15.40
2018,06,26,08,54,15.50
2018,06,26,08,55,15.50
2018,06,26,08,56,15.60
2018,06,26,08,57,15.60
2018,06,26,08,58,15.60
2018,06,26,08,59,15.60
2018,06,26,09,00,15.60
2018,06,26,09,01,15.60
2018,06,26,09,02,15.60
2018,06,26,09,03,15.70
2018,06,26,09,04,15.70
2018,06,26,09,05,15.70
2018,06,26,09,06,15.70
2018,06,26,09,07,15.80
2018,06,26,09,08,15.80
2018,06,26,09,09,15.80
2018,06,26,09,10,15.80
2018,06,26,09,11,15.80
2018,06,26,09,12,15.80
2018,06,26,09,13,15.80
2018,06,26,09,14,15.90
2018,06,26,09,15,15.90
2018,06,26,09,16,15.90
2018,06,26,09,17,15.90
2018,06,26,09,18,15.90
2018,06,26,09,19,15.90
2018,06,26,09,20,16.00
2018,06,26,09,21,16.00
2018,06,26,09,22,16.10
2018,06,26,09,23,16.10
2018,06,26,09,24,16.10
2018,06,26,09,25,16.10
2018,06,26,09,26,16.00
2018,06,26,09,27,16.00
2018,06,26,09,28,16.00
2018,06,26,09,29,16.00
2018,06,26,09,30,16.00
2018,06,26,09,31,16.00
2018,06,26,09,32,16.00
2018,06,26,09,33,16.00
2018,06,26,09,34,16.00
2018,06,26,09,35,16.10
2018,06,26,09,36,16.20
2018,06,26,09,37,16.20
2018,06,26,09,38,16.30
2018,06,26,09,39,16.40
2018,06,26,09,40,16.60
2018,06,26,09,41,16.70
2018,06,26,09,42,16.80
2018,06,26,09,43,16.90
2018,06,26,09,44,17.00
2018,06,26,09,45,17.20
2018,06,26,09,46,17.30
2018,06,26,09,47,17.40
2018,06,26,09,48,17.40
2018,06,26,09,49,17.50
2018,06,26,09,50,17.60
2018,06,26,09,51,17.70
2018,06,26,09,52,17.70
2018,06,26,09,53,17.70
2018,06,26,09,54,17.60
2018,06,26,09,55,17.50
2018,06,26,09,56,17.40
2018,06,26,09,57,17.40
2018,06,26,09,58,17.40
2018,06,26,09,59,17.40
2018,06,26,10,00,17.40
2018,06,26,10,01,17.40
2018,06,26,10,02,17.50
2018,06,26,10,03,17.60
2018,06,26,10,04,17.70
2018,06,26,10,05,17.80
2018,06,26,10,06,18.00
2018,06,26,10,07,18.10
2018,06,26,10,08,18.20
2018,06,26,10,09,18.40
2018,06,26,10,10,18.40
2018,06,26,10,11,18.40
2018,06,26,10,12,18.50
2018,06,26,10,13,18.50
2018,06,26,10,14,18.50
2018,06,26,10,15,18.60
2018,06,26,10,16,18.60
2018,06,26,10,17,18.60
2018,06,26,10,18,18.50
2018,06,26,10,19,18.50
2018,06,26,10,20,18.50
2018,06,26,10,21,18.50
2018,06,26,10,22,18.50
2018,06,26,10,23,18.50
2018,06,26,10,24,18.40
2018,06,26,10,25,18.40
2018,06,26,10,26,18.40
2018,06,26,10,27,18.40
2018,06,26,10,28,18.40
2018,06,26,10,29,18.50
2018,06,26,10,30,18.50
2018,06,26,10,31,18.40
2018,06,26,10,32,18.40
2018,06,26,10,33,18.40
2018,06,26,10,34,18.30
2018,06,26,10,35,18.20
2018,06,26,10,36,18.10
2018,06,26,10,37,18.00
2018,06,26,10,38,17.90
2018,06,26,10,39,17.80
2018,06,26,10,40,17.70
2018,06,26,10,41,17.70
2018,06,26,10,42,17.70
2018,06,26,10,43,17.70
2018,06,26,10,44,17.70
2018,06,26,10,45,17.80
2018,06,26,10,46,17.70
2018,06,26,10,47,17.70
2018,06,26,10,48,17.70
2018,06,26,10,49,17.60
2018,06,26,10,50,17.60
2018,06,26,10,51,17.50
2018,06,26,10,52,17.40
2018,06,26,10,53,17.40
2018,06,26,10,54,17.30
2018,06,26,10,55,17.30
2018,06,26,10,56,17.30
2018,06,26,10,57,17.30
2018,06,26,10,58,17.30
2018,06,26,10,59,17.30
2018,06,26,11,00,17.30
2018,06,26,11,01,17.30
2018,06,26,11,02,17.30
2018,06,26,11,03,17.20
2018,06,26,11,04,17.20
2018,06,26,11,05,17.20
2018,06,26,11,06,17.10
2018,06,26,11,07,17.10
2018,06,26,11,08,17.00
2018,06,26,11,09,17.10
2018,06,26,11,10,17.10
2018,06,26,11,11,17.10
2018,06,26,11,12,17.10
2018,06,26,11,13,17.20
2018,06,26,11,14,17.20
2018,06,26,11,15,17.40
2018,06,26,11,16,17.50
2018,06,26,11,17,17.60
2018,06,26,11,18,17.80
2018,06,26,11,19,17.90
2018,06,26,11,20,17.90
2018,06,26,11,21,17.90
2018,06,26,11,22,17.90
2018,06,26,11,23,17.90
2018,06,26,11,24,17.90
2018,06,26,11,25,17.90
2018,06,26,11,26,17.80
2018,06,26,11,27,17.70
2018,06,26,11,28,17.80
2018,06,26,11,29,17.80
2018,06,26,11,30,17.90
2018,06,26,11,31,18.00
2018,06,26,11,32,18.00
2018,06,26,11,33,18.00
2018,06,26,11,34,18.00
2018,06,26,11,35,18.00
2018,06,26,11,36,18.10
2018,06,26,11,37,18.00
2018,06,26,11,38,18.00
2018,06,26,11,39,18.00
2018,06,26,11,40,18.10
2018,06,26,11,41,18.00
2018,06,26,11,42,18.00
2018,06,26,11,43,17.90
2018,06,26,11,44,17.80
2018,06,26,11,45,17.80
2018,06,26,11,46,17.90
2018,06,26,11,47,18.00
2018,06,26,11,48,18.10
2018,06,26,11,49,18.20
2018,06,26,11,50,18.20
2018,06,26,11,51,18.20
2018,06,26,11,52,18.20
2018,06,26,11,53,18.20
2018,06,26,11,54,18.20
2018,06,26,11,55,18.20
2018,06,26,11,56,18.10
2018,06,26,11,57,18.10
2018,06,26,11,58,18.10
2018,06,26,11,59,18.10
2018,06,26,12,00,18.00
2018,06,26,12,01,18.00
2018,06,26,12,02,18.00
2018,06,26,12,03,18.10
2018,06,26,12,04,18.00
2018,06,26,12,05,18.00
2018,06,26,12,06,18.10
2018,06,26,12,07,18.10
2018,06,26,12,08,18.20
2018,06,26,12,09,18.30
2018,06,26,12,10,18.30
2018,06,26,12,11,18.30
2018,06,26,12,12,18.30
2018,06,26,12,13,18.30
2018,06,26,12,14,18.20
2018,06,26,12,15,18.10
2018,06,26,12,16,18.00
2018,06,26,12,17,17.90
2018,06,26,12,18,17.90
2018,06,26,12,19,17.90
2018,06,26,12,20,18.00
2018,06,26,12,21,18.00
2018,06,26,12,22,18.00
2018,06,26,12,23,18.00
2018,06,26,12,24,18.00
2018,06,26,12,25,18.10
2018,06,26,12,26,18.10
2018,06,26,12,27,18.10
2018,06,26,12,28,18.20
2018,06,26,12,29,18.20
2018,06,26,12,30,18.20
2018,06,26,12,31,18.10
2018,06,26,12,32,18.10
2018,06,26,12,33,18.10
2018,06,26,12,34,18.00
2018,06,26,12,35,18.10
2018,06,26,12,36,18.10
2018,06,26,12,37,18.10
2018,06,26,12,38,18.10
2018,06,26,12,39,18.20
2018,06,26,12,40,18.30
2018,06,26,12,41,18.40
2018,06,26,12,42,18.30
2018,06,26,12,43,18.30
2018,06,26,12,44,18.40
2018,06,26,12,45,18.40
2018,06,26,12,46,18.40
2018,06,26,12,47,18.40
2018,06,26,12,48,18.50
2018,06,26,12,49,18.60
2018,06,26,12,50,18.60
2018,06,26,12,51,18.60
2018,06,26,12,52,18.70
2018,06,26,12,53,18.70
2018,06,26,12,54,18.70
2018,06,26,12,55,18.70
2018,06,26,12,56,18.80
2018,06,26,12,57,18.90
2018,06,26,12,58,19.00
2018,06,26,12,59,19.10
2018,06,26,13,00,19.20
2018,06,26,13,01,19.40
2018,06,26,13,02,19.50
2018,06,26,13,03,19.60
2018,06,26,13,04,19.60
2018,06,26,13,05,19.60
2018,06,26,13,06,19.60
2018,06,26,13,07,19.50
2018,06,26,13,08,19.40
2018,06,26,13,09,19.40
2018,06,26,13,10,19.40
2018,06,26,13,11,19.50
2018,06,26,13,12,19.60
2018,06,26,13,13,19.60
2018,06,26,13,14,19.60
2018,06,26,13,15,19.60
2018,06,26,13,16,19.50
2018,06,26,13,17,19.40
2018,06,26,13,18,19.30
2018,06,26,13,19,19.30
2018,06,26,13,20,19.30
2018,06,26,13,21,19.30
2018,06,26,13,22,19.30
2018,06,26,13,23,19.30
2018,06,26,13,24,19.30
2018,06,26,13,25,19.40
2018,06,26,13,26,19.40
2018,06,26,13,27,19.50
2018,06,26,13,28,19.60
2018,06,26,13,29,19.60
2018,06,26,13,30,19.70
2018,06,26,13,31,19.70
2018,06,26,13,32,19.80
2018,06,26,13,33,19.80
2018,06,26,13,34,19.80
2018,06,26,13,35,19.80
2018,06,26,13,36,19.80
2018,06,26,13,37,19.80
2018,06,26,13,38,19.80
2018,06,26,13,39,19.80
2018,06,26,13,40,19.70
2018,06,26,13,41,19.60
2018,06,26,13,42,19.60
2018,06,26,13,43,19.60
2018,06,26,13,44,19.50
2018,06,26,13,45,19.50
2018,06,26,13,46,19.40
2018,06,26,13,47,19.30
2018,06,26,13,48,19.30
2018,06,26,13,49,19.30
2018,06,26,13,50,19.40
2018,06,26,13,51,19.40
2018,06,26,13,52,19.40
2018,06,26,13,53,19.40
2018,06,26,13,54,19.40
2018,06,26,13,55,19.40
2018,06,26,13,56,19.50
2018,06,26,13,57,19.60
2018,06,26,13,58,19.60
2018,06,26,13,59,19.60
2018,06,26,14,00,19.60
2018,06,26,14,01,19.60
2018,06,26,14,02,19.60
2018,06,26,14,03,19.60
2018,06,26,14,04,19.60
2018,06,26,14,05,19.60
2018,06,26,14,06,19.70
2018,06,26,14,07,19.80
2018,06,26,14,08,19.80
2018,06,26,14,09,19.80
2018,06,26,14,10,19.80
2018,06,26,14,11,19.80
2018,06,26,14,12,19.80
2018,06,26,14,13,19.80
2018,06,26,14,14,19.80
2018,06,26,14,15,19.80
2018,06,26,14,16,19.80
2018,06,26,14,17,19.70
2018,06,26,14,18,19.70
2018,06,26,14,19,19.70
2018,06,26,14,20,19.70
2018,06,26,14,21,19.70
2018,06,26,14,22,19.70
2018,06,26,14,23,19.70
2018,06,26,14,24,19.70
2018,06,26,14,25,19.70
2018,06,26,14,26,19.60
2018,06,26,14,27,19.60
2018,06,26,14,28,19.60
2018,06,26,14,29,19.60
2018,06,26,14,30,19.60
2018,06,26,14,31,19.70
2018,06,26,14,32,19.70
2018,06,26,14,33,19.60
2018,06,26,14,34,19.50
2018,06,26,14,35,19.50
2018,06,26,14,36,19.40
2018,06,26,14,37,19.40
2018,06,26,14,38,19.40
2018,06,26,14,39,19.40
2018,06,26,14,40,19.40
2018,06,26,14,41,19.40
2018,06,26,14,42,19.40
2018,06,26,14,43,19.40
2018,06,26,14,44,19.40
2018,06,26,14,45,19.50
2018,06,26,14,46,19.40
2018,06,26,14,47,19.40
2018,06,26,14,48,19.40
2018,06,26,14,49,19.50
2018,06,26,14,50,19.50
2018,06,26,14,51,19.60
2018,06,26,14,52,19.70
2018,06,26,14,53,19.60
2018,06,26,14,54,19.60
2018,06,26,14,55,19.60
2018,06,26,14,56,19.60
2018,06,26,14,57,19.60
2018,06,26,14,58,19.60
2018,06,26,14,59,19.60
2018,06,26,15,00,19.60
2018,06,26,15,01,19.50
2018,06,26,15,02,19.50
2018,06,26,15,03,19.40
2018,06,26,15,04,19.20
2018,06,26,15,05,19.10
2018,06,26,15,06,19.00
2018,06,26,15,07,18.90
2018,06,26,15,08,18.80
2018,06,26,15,09,18.80
2018,06,26,15,10,18.90
2018,06,26,15,11,19.00
2018,06,26,15,12,19.10
2018,06,26,15,13,19.20
2018,06,26,15,14,19.20
2018,06,26,15,15,19.20
2018,06,26,15,16,19.20
2018,06,26,15,17,19.20
2018,06,26,15,18,19.20
2018,06,26,15,19,19.20
2018,06,26,15,20,19.20
2018,06,26,15,21,19.30
2018,06,26,15,22,19.30
2018,06,26,15,23,19.40
2018,06,26,15,24,19.50
2018,06,26,15,25,19.60
2018,06,26,15,26,19.70
2018,06,26,15,27,19.70
2018,06,26,15,28,19.80
2018,06,26,15,29,19.90
2018,06,26,15,30,20.00
2018,06,26,15,31,20.10
2018,06,26,15,32,20.10
2018,06,26,15,33,20.00
2018,06,26,15,34,20.00
2018,06,26,15,35,19.90
2018,06,26,15,36,19.90
2018,06,26,15,37,19.90
2018,06,26,15,38,19.90
2018,06,26,15,39,19.80
2018,06,26,15,40,19.80
2018,06,26,15,41,19.80
2018,06,26,15,42,19.80
2018,06,26,15,43,19.70
2018,06,26,15,44,19.70
2018,06,26,15,45,19.60
2018,06,26,15,46,19.70
2018,06,26,15,47,19.70
2018,06,26,15,48,19.70
2018,06,26,15,49,19.80
2018,06,26,15,50,19.90
2018,06,26,15,51,20.00
2018,06,26,15,52,20.00
2018,06,26,15,53,20.10
2018,06,26,15,54,20.10
2018,06,26,15,55,20.20
2018,06,26,15,56,20.30
2018,06,26,15,57,20.30
2018,06,26,15,58,20.30
2018,06,26,15,59,20.30
2018,06,26,16,00,20.40
2018,06,26,16,01,20.50
2018,06,26,16,02,20.60
2018,06,26,16,03,20.70
2018,06,26,16,04,20.70
2018,06,26,16,05,20.70
2018,06,26,16,06,20.60
2018,06,26,16,07,20.50
2018,06,26,16,08,20.50
2018,06,26,16,09,20.50
2018,06,26,16,10,20.40
2018,06,26,16,11,20.50
2018,06,26,16,12,20.50
2018,06,26,16,13,20.60
2018,06,26,16,14,20.70
2018,06,26,16,15,20.80
2018,06,26,16,16,20.80
2018,06,26,16,17,20.90
2018,06,26,16,18,20.90
2018,06,26,16,19,20.90
2018,06,26,16,20,20.90
2018,06,26,16,21,21.00
2018,06,26,16,22,21.00
2018,06,26,16,23,21.00
2018,06,26,16,24,21.00
2018,06,26,16,25,21.00
2018,06,26,16,26,21.00
2018,06,26,16,27,21.00
2018,06,26,16,28,21.10
2018,06,26,16,29,21.20
2018,06,26,16,30,21.10
2018,06,26,16,31,21.00
2018,06,26,16,32,20.90
2018,06,26,16,33,20.90
2018,06,26,16,34,20.90
2018,06,26,16,35,20.90
2018,06,26,16,36,20.80
2018,06,26,16,37,20.80
2018,06,26,16,38,20.70
2018,06,26,16,39,20.70
2018,06,26,16,40,20.70
2018,06,26,16,41,20.70
2018,06,26,16,42,20.70
2018,06,26,16,43,20.70
2018,06,26,16,44,20.70
2018,06,26,16,45,20.70
2018,06,26,16,46,20.60
2018,06,26,16,47,20.60
2018,06,26,16,48,20.60
2018,06,26,16,49,20.50
2018,06,26,16,50,20.50
2018,06,26,16,51,20.50
2018,06,26,16,52,20.50
2018,06,26,16,53,20.50
2018,06,26,16,54,20.50
2018,06,26,16,55,20.60
2018,06,26,16,56,20.60
2018,06,26,16,57,20.60
2018,06,26,16,58,20.60
2018,06,26,16,59,20.60
2018,06,26,17,00,20.60
2018,06,26,17,01,20.60
2018,06,26,17,02,20.60
2018,06,26,17,03,20.60
2018,06,26,17,04,20.60
2018,06,26,17,05,20.60
2018,06,26,17,06,20.60
2018,06,26,17,07,20.60
2018,06,26,17,08,20.50
2018,06,26,17,09,20.50
2018,06,26,17,10,20.40
2018,06,26,17,11,20.50
2018,06,26,17,12,20.50
2018,06,26,17,13,20.50
2018,06,26,17,14,20.50
2018,06,26,17,15,20.50
2018,06,26,17,16,20.60
2018,06,26,17,17,20.60
2018,06,26,17,18,20.60
2018,06,26,17,19,20.60